Showing default

YUNYAO-1 43, 63344

Orbit data source: Space-Track

YUNYAO-1 43, 63344 is a payload satellite owned by Yunyao yuhang (CN) in SSO that was launched on Fri, 21 Mar 2025 UTC via a GUSHENXING 1 launch vehicle from the Jiuquan Satellite Launch Center, China (JSC). Payload-class satellites include a variety of spacecraft equipped with specific instruments for various scientific and technological missions. These include communications satellites like Starlink; space stations such as the ISS; scientific satellites like the Hubble; Earth observation satellites from companies like Planet Labs, Umbra, and HawkEye 360; GPS; miniature CubeSats for education and research; and military/defense satellites.

Loading next visibility...
Identifier
63344, 2025-059A
Orbit
SSO
Country
Flag of CNCN / PRC
Related business
Manufacturer
Changguang WJ
Mission
Operational Commercial Meteo Radio Occ.
Bus & Motor
YY-1, Unknown motor
Mass
~50 kg wet, ~50 kg dry
Launch date (UTC)
2025-03-21 (7 months ago)
Launch vehicle
GUSHENXING 1
Launch site
Jiuquan Satellite Launch Center, China (JSC)
Object type
Payload
Rocket body
Debris
Shape & HBR
Box + 1 Pan, 0.5 m
Radar Cross Section
5.339 m², Medium (>0.1 m² and < 1m²)

Expand to show TLE details & history
Last TLE update: 7 hours ago

TLE from 7 hours ago
0 YUNYAO-1 43
1 63344U 25059A   25293.27406296  .00006710  00000-0  42969-3 0  9995
2 63344  97.6029 111.3511 0013916 255.6655 104.3029 15.08808338 32099
Epoch: 2025-10-20T06:34Z
TLE epoch observation values (Epoch: 2025-10-20T06:34:39.039Z)
Latitude
-0.00001°
Longitude
-16.29029°
Altitude
545.301 km
Speed
7.588 km/s
True Right ascension
07h 25m 24s
True Declination
0° 00' 00"
Sunlit
Object was in daylight at epoch
Visualization orbit readout
Latitude
Unknown
Longitude
Unknown
Altitude
Unknown
Speed
Unknown
Apparent Right ascension
Unknown
Apparent Declination
Unknown
Sunlit
N/A
Visualization observer readout
Local Sidereal Time
08:35:01
Azimuth
Unknown
Elevation
Unknown
Doppler factor
Unknown
Orbital elements
Apogee altitude
546.452 km
Perigee altitude
527.207 km
Semi-major axis
6,914.966 km
Eccentricity
0.00139
Inclination
97.6029°
RAAN
111.3511°
Arg. of periapsis
255.6655°
True anomaly
104.45736°
Mean anomaly
104.3029°
Eccentric anomaly
104.38013°
Mean motion
3.77449 °/min
Orbital period
95.38 mins
BSTAR
0.00042969
Loading maneuver chart data...
Computing Atmospheric mass density...
Loading historical data...
Loading historical data...
Loading historical data...
Loading historical data...
Loading historical data...
Loading historical data...
Loading historical data...
Other satellites on launch #59 in the year 2025 (2025-03-21 UTC)

Documentation

Showing up to 5 results
|